Wind_Speed
22 22 21 20 19 17 15 12 10 9 8 8 10 13 16 19 22 25 27 29 31 33 34 36 37 38 38 37 37 36 36 36 35 34 34 35 34 35 35 34 33 32 31
23 23 22 21 20 18 16 14 11 10 8 8 8 10 12 15 18 21 23 25 28 30 32 33 34 36 37 36 35 34 35 35 34 34 33 34 34 34 34 34 34 33 34
24 24 24 23 22 20 18 15 13 11 9 8 8 8 9 10 14 17 20 22 24 26 28 30 32 33 34 34 35 35 35 35 34 34 34 34 33 34 35 34 34 34 34
25 24 24 24 23 21 19 17 15 13 10 9 8 7 6 7 9 13 16 19 21 23 25 28 29 30 31 32 32 33 33 33 32 32 32 32 32 32 33 34 33 33 32
25 25 25 25 24 22 21 19 17 14 12 10 9 7 5 4 6 9 12 14 17 19 22 24 25 27 27 28 29 30 30 29 29 29 29 29 30 30 31 31 30 30 29
25 26 26 26 25 23 22 20 18 16 14 12 11 9 6 4 4 5 8 10 12 15 18 20 22 23 24 24 24 26 26 27 27 27 27 27 26 26 27 28 28 28 27
25 25 26 26 26 24 23 21 20 18 17 14 12 11 9 6 3 2 4 7 10 11 14 16 18 20 21 22 22 23 24 24 24 24 24 24 24 25 26 25 25 24 24
24 25 25 25 25 25 24 22 21 19 18 17 15 13 11 9 6 2 1 4 6 8 10 12 14 15 17 19 19 19 20 21 21 21 21 21 22 22 22 22 22 22 22
24 24 24 25 25 24 24 23 22 21 19 18 17 15 13 11 8 6 3 1 2 5 8 10 12 13 13 14 15 15 16 17 18 18 19 19 19 19 19 20 20 20 20
23 24 24 24 24 24 23 23 22 21 20 19 18 17 15 13 11 8 5 3 1 3 5 7 9 11 12 13 13 13 13 13 13 14 15 16 16 16 17 17 17 18 18
22 23 23 23 23 23 23 22 22 21 20 20 19 18 17 15 13 11 8 6 4 3 4 6 7 8 9 10 11 11 11 12 11 12 12 13 13 14 14 15 15 15 15
21 21 22 22 22 22 22 22 22 21 20 19 19 19 18 16 15 13 10 8 6 5 4 4 5 6 7 8 9 10 10 10 10 10 11 11 12 12 12 12 13 13 13
20 20 20 20 21 21 21 21 21 21 20 19 18 18 17 16 15 14 12 10 8 7 5 5 4 6 7 7 8 8 8 8 9 9 10 10 11 10 11 11 12 11 11
19 19 19 19 19 19 19 20 20 20 19 18 17 17 17 16 15 14 13 12 10 9 8 7 6 6 6 6 7 7 7 8 8 8 8 9 9 10 10 10 11 10 10
18 18 18 18 18 17 17 17 18 18 18 17 16 16 16 15 15 14 13 12 11 10 9 8 7 6 6 6 6 6 7 7 7 7 7 8 9 9 10 10 10 10 10
19 18 18 17 17 17 16 15 15 15 15 15 14 14 14 13 13 13 12 11 10 9 8 8 7 7 6 6 6 6 6 6 6 6 7 7 7 8 8 8 9 9 9
20 19 19 18 17 17 16 15 14 14 13 13 12 12 12 11 11 10 10 9 8 7 6 6 5 5 5 5 5 5 5 5 5 6 6 6 6 7 7 7 7 8 8
21 21 20 19 19 18 17 16 15 14 13 12 11 10 10 9 8 8 7 6 6 5 5 4 4 4 3 3 3 3 4 4 4 5 6 7 7 7 7 7 7 8 8
24 23 22 21 20 19 18 17 16 15 14 13 12 10 9 8 7 6 5 5 4 3 2 1 1 1 1 1 1 2 3 3 4 5 6 6 7 7 7 8 8 8 8
27 26 25 24 23 22 21 19 18 17 16 15 13 12 11 10 9 8 6 5 5 4 3 3 2 2 2 2 3 3 3 4 5 5 5 6 7 7 8 8 8 8 8
31 30 29 28 26 25 24 23 21 20 19 18 16 15 14 13 11 10 9 8 7 7 6 5 5 5 5 5 5 5 5 5 5 5 5 6 7 8 8 9 9 9 9
35 34 32 31 30 29 27 26 25 24 22 21 20 19 17 16 15 14 13 12 11 10 9 8 8 7 7 7 7 7 7 7 7 7 7 7 8 8 9 10 10 10 11
40 38 37 35 34 33 31 30 29 27 26 25 24 22 21 20 18 17 16 15 14 14 13 13 12 11 11 10 10 10 10 10 10 9 9 10 10 10 10 11 11 12 12
44 43 41 40 39 37 36 34 33 31 30 29 27 26 25 24 22 21 20 19 18 17 16 16 15 15 15 14 13 13 13 13 13 13 13 13 13 13 13 13 13 14 14
49 48 46 45 43 42 40 39 37 36 34 33 31 30 29 27 26 25 24 23 22 21 20 19 18 18 18 17 17 17 16 16 16 16 16 16 16 16 16 16 16 16 16
52 52 51 50 48 47 45 43 42 40 39 37 36 34 32 31 30 29 28 27 26 25 24 23 22 21 21 20 20 20 19 19 19 19 19 18 18 18 18 18 19 19 19
Wind_Direction
9 9 7 6 5 3 360 353 341 328 311 293 274 260 250 243 240 237 236 235 235 235 235 235 235 234 234 235 235 236 236 236 237 238 239 239 241 242 242 243 245 248 250
10 9 9 8 8 6 3 1 355 344 327 310 293 275 263 251 242 237 235 235 234 234 235 235 235 236 236 236 236 237 236 235 235 237 238 238 240 242 242 243 245 248 250
14 13 13 12 12 9 8 6 2 355 346 333 317 298 278 258 244 238 237 235 234 234 233 234 235 235 236 237 238 238 237 236 236 238 238 239 241 242 242 244 245 248 250
17 16 15 15 15 14 13 10 9 6 1 351 337 323 296 270 253 241 238 237 235 233 232 233 233 233 233 236 238 239 240 240 239 239 240 241 243 243 243 243 245 247 248
17 18 17 18 18 19 18 16 16 15 10 4 359 353 334 291 259 243 239 236 233 231 231 232 233 232 234 236 238 239 240 240 240 240 240 242 244 243 243 242 244 246 246
19 19 20 21 21 22 22 22 21 19 18 16 13 9 4 341 282 250 241 234 230 231 229 231 231 231 234 235 235 235 236 238 238 237 237 239 240 241 241 242 243 244 246
19 20 21 22 23 23 24 24 24 23 23 22 21 19 17 13 354 267 237 228 227 229 228 227 225 225 229 228 230 230 231 232 232 233 235 235 237 240 242 242 243 244 245
19 20 21 22 23 24 24 25 25 25 24 24 24 24 21 21 23 18 234 222 225 224 219 217 219 221 220 221 224 225 226 225 226 229 231 234 235 236 238 238 236 238 243
18 19 20 21 23 24 25 25 25 25 25 25 25 24 24 25 28 30 28 14 221 212 205 205 210 214 213 216 219 219 220 221 223 226 226 228 232 232 232 235 237 239 241
16 18 19 20 22 23 24 24 24 24 25 26 26 26 28 31 34 37 41 48 96 171 187 193 200 206 211 211 217 217 215 214 215 216 219 224 228 229 231 233 233 232 235
13 15 17 19 20 22 23 23 24 25 25 27 28 30 32 37 42 44 48 56 75 112 147 170 185 195 200 201 203 202 203 206 208 213 217 220 222 223 225 224 223 225 228
8 10 12 15 17 19 21 22 23 24 26 28 30 33 35 38 43 46 50 57 67 81 106 136 162 176 184 187 189 193 197 199 203 208 212 214 216 215 215 216 218 222 227
1 4 6 9 12 15 18 20 22 24 25 28 30 32 35 37 41 44 48 54 63 74 88 107 128 146 158 170 180 184 188 192 198 202 206 210 209 209 210 211 214 219 222
353 356 359 2 5 9 13 16 19 22 24 27 29 32 34 37 41 44 49 54 62 74 86 96 109 129 146 158 165 170 176 183 191 196 197 200 202 205 208 211 214 217 219
342 346 349 352 355 359 3 9 13 17 21 23 26 30 34 38 42 45 50 56 64 75 83 91 105 119 133 146 158 168 174 182 187 195 197 200 204 208 211 214 216 215 214
331 334 337 340 344 347 350 355 1 6 12 17 19 22 27 33 38 42 46 52 61 71 78 84 91 101 113 126 138 154 168 176 179 184 189 194 201 205 205 206 208 209 211
321 323 326 329 331 334 337 340 344 349 354 1 7 11 16 21 27 33 40 46 52 61 70 76 83 92 107 121 135 150 162 177 186 192 193 195 199 202 204 205 206 208 213
311 313 315 318 320 321 323 325 328 332 336 339 344 351 357 4 11 18 24 31 38 46 55 65 76 90 107 127 141 157 168 176 189 199 206 209 208 208 209 211 213 216 219
301 303 305 307 308 310 311 312 313 315 318 322 324 326 330 335 339 344 351 355 359 4 11 23 48 82 127 153 171 185 195 203 206 206 209 213 213 213 216 217 217 220 224
295 295 296 297 299 300 300 301 302 302 303 303 306 308 309 310 310 310 309 308 309 309 305 294 278 261 244 236 233 231 228 223 219 212 215 221 222 222 222 221 223 226 230
289 290 290 290 291 291 292 292 292 292 292 292 292 292 293 294 294 292 291 289 285 282 279 275 269 261 254 250 245 241 236 231 228 228 230 232 232 229 228 229 231 235 238
284 284 284 284 284 285 285 285 285 284 284 284 284 283 283 282 282 282 280 277 275 272 267 264 262 258 255 253 248 244 242 240 240 240 238 237 237 237 237 238 239 242 244
281 280 280 279 279 279 279 279 279 279 278 278 277 276 276 275 274 273 272 271 269 266 264 262 260 258 257 256 253 251 249 248 246 245 245 246 246 246 246 246 247 248 249
278 277 276 276 275 275 274 274 274 273 273 273 273 272 271 270 269 268 267 266 266 264 263 261 259 258 258 257 256 255 253 251 250 250 251 252 253 252 252 253 253 253 253
275 274 273 272 272 271 271 270 270 269 268 268 268 268 267 266 265 264 264 263 262 261 260 259 259 259 259 258 257 255 255 254 254 254 255 256 256 256 256 256 256 256 256
272 271 270 269 268 268 267 267 266 266 265 265 264 264 264 263 263 262 261 260 259 258 258 258 258 257 258 258 257 257 256 256 255 256 257 257 258 258 258 258 259 259 260
Height
5777 5772 5767 5762 5758 5753 5749 5746 5744 5742 5741 5741 5740 5741 5742 5743 5745 5748 5751 5754 5758 5761 5765 5770 5774 5778 5783 5787 5791 5795 5799 5804 5808 5811 5814 5817 5820 5823 5826 5829 5831 5833 5835
5779 5774 5768 5763 5758 5754 5750 5746 5743 5741 5739 5738 5738 5737 5738 5738 5740 5742 5745 5748 5752 5755 5759 5763 5767 5771 5775 5779 5783 5787 5791 5795 5800 5803 5806 5810 5813 5816 5818 5821 5823 5825 5828
5780 5775 5770 5765 5760 5755 5750 5747 5743 5740 5738 5737 5735 5735 5734 5734 5735 5737 5740 5743 5746 5749 5752 5756 5759 5763 5768 5772 5776 5780 5784 5787 5791 5795 5798 5802 5805 5807 5810 5813 5815 5818 5820
5782 5777 5772 5766 5761 5756 5751 5747 5744 5740 5738 5736 5734 5733 5732 5732 5732 5734 5736 5738 5740 5743 5747 5750 5753 5757 5761 5765 5769 5773 5776 5780 5783 5787 5791 5794 5797 5799 5802 5805 5808 5810 5812
5785 5779 5774 5768 5763 5758 5753 5749 5745 5741 5739 5736 5734 5732 5731 5730 5730 5731 5732 5734 5736 5739 5741 5745 5748 5751 5755 5759 5762 5766 5770 5773 5776 5780 5783 5787 5789 5792 5795 5798 5800 5803 5805
5787 5782 5776 5771 5765 5760 5756 5751 5747 5743 5740 5737 5734 5732 5730 5729 5729 5729 5730 5731 5733 5734 5737 5740 5743 5746 5749 5753 5756 5760 5763 5767 5770 5773 5777 5780 5783 5786 5788 5791 5793 5796 5798
5790 5784 5779 5774 5768 5763 5759 5754 5750 5746 5742 5739 5736 5733 5731 5729 5728 5727 5728 5729 5730 5731 5733 5736 5738 5741 5745 5748 5751 5754 5758 5761 5764 5768 5771 5774 5777 5780 5782 5785 5787 5789 5792
5792 5787 5782 5777 5772 5767 5762 5757 5753 5749 5745 5741 5738 5735 5732 5730 5728 5727 5727 5727 5728 5729 5731 5733 5736 5738 5741 5744 5747 5750 5753 5756 5760 5763 5766 5768 5771 5774 5776 5779 5781 5784 5786
5795 5790 5785 5780 5775 5770 5765 5760 5756 5752 5747 5743 5740 5736 5733 5731 5728 5727 5727 5726 5727 5727 5729 5731 5733 5736 5739 5741 5744 5747 5749 5752 5755 5758 5761 5764 5766 5769 5771 5774 5776 5779 5781
5797 5792 5788 5783 5778 5773 5768 5764 5759 5754 5750 5746 5742 5739 5735 5732 5730 5728 5727 5727 5727 5727 5729 5730 5733 5735 5737 5739 5742 5745 5747 5750 5753 5755 5758 5760 5762 5765 5767 5769 5772 5775 5776
5800 5795 5790 5786 5781 5776 5772 5767 5762 5758 5753 5749 5745 5742 5738 5735 5733 5731 5729 5729 5728 5729 5729 5731 5732 5734 5736 5738 5741 5743 5746 5749 5751 5753 5755 5758 5760 5762 5764 5766 5768 5771 5773
5802 5797 5793 5788 5784 5779 5775 5770 5765 5761 5757 5753 5749 5746 5742 5739 5737 5734 5733 5731 5731 5730 5731 5731 5732 5734 5736 5738 5740 5743 5745 5747 5749 5751 5754 5756 5758 5760 5762 5763 5765 5767 5770
5803 5799 5795 5791 5786 5782 5778 5774 5769 5765 5761 5757 5753 5750 5746 5743 5741 5738 5736 5735 5734 5733 5733 5733 5734 5735 5737 5739 5740 5743 5744 5746 5749 5750 5752 5754 5756 5758 5760 5762 5763 5765 5767
5803 5800 5796 5792 5788 5785 5781 5777 5772 5768 5764 5761 5757 5754 5750 5747 5745 5743 5741 5739 5737 5736 5736 5736 5737 5738 5739 5740 5741 5743 5745 5747 5748 5750 5752 5753 5755 5757 5758 5760 5762 5763 5765
5803 5800 5797 5793 5789 5786 5783 5779 5775 5772 5768 5764 5761 5758 5755 5752 5749 5747 5745 5743 5741 5740 5740 5739 5740 5740 5741 5742 5743 5744 5745 5747 5748 5750 5751 5752 5754 5756 5757 5759 5760 5761 5763
5802 5799 5796 5793 5790 5787 5784 5780 5777 5774 5771 5768 5764 5761 5758 5756 5753 5751 5749 5747 5746 5744 5744 5743 5743 5743 5743 5743 5744 5745 5746 5747 5748 5749 5751 5752 5753 5754 5756 5757 5758 5760 5761
5800 5797 5795 5792 5789 5786 5784 5781 5778 5775 5772 5770 5767 5764 5761 5759 5756 5754 5752 5751 5749 5748 5747 5746 5746 5745 5745 5745 5746 5746 5747 5748 5748 5749 5750 5751 5752 5753 5755 5756 5757 5758 5760
5796 5794 5792 5789 5787 5785 5782 5780 5777 5775 5772 5770 5768 5765 5763 5760 5758 5756 5755 5753 5752 5750 5749 5748 5748 5747 5747 5747 5747 5747 5748 5748 5749 5749 5750 5751 5752 5753 5754 5755 5756 5757 5758
5792 5790 5788 5786 5784 5782 5780 5778 5775 5773 5771 5769 5767 5765 5763 5761 5759 5757 5756 5754 5753 5752 5751 5750 5749 5749 5748 5748 5748 5748 5748 5748 5748 5749 5749 5750 5750 5751 5752 5753 5754 5755 5756
5785 5784 5782 5781 5779 5777 5775 5774 5772 5770 5769 5767 5765 5763 5762 5760 5758 5757 5755 5754 5753 5752 5751 5750 5749 5749 5748 5748 5748 5748 5748 5748 5748 5748 5749 5749 5749 5750 5751 5752 5753 5754 5754
5778 5777 5775 5774 5773 5771 5770 5768 5767 5766 5765 5763 5762 5760 5759 5758 5756 5755 5754 5752 5751 5750 5750 5749 5748 5748 5747 5747 5747 5747 5747 5747 5747 5747 5747 5748 5748 5748 5749 5750 5751 5751 5752
5768 5768 5767 5766 5765 5764 5763 5762 5761 5760 5759 5758 5757 5756 5755 5754 5753 5752 5751 5750 5749 5748 5747 5747 5746 5746 5746 5745 5745 5745 5745 5745 5745 5745 5745 5746 5746 5746 5747 5747 5748 5748 5749
5757 5757 5756 5756 5755 5755 5754 5753 5753 5752 5751 5751 5750 5749 5749 5748 5747 5747 5746 5745 5745 5744 5744 5743 5743 5743 5743 5742 5742 5742 5742 5742 5742 5742 5743 5743 5743 5743 5744 5744 5745 5745 5745
5744 5744 5744 5744 5744 5743 5743 5743 5743 5743 5742 5742 5742 5741 5741 5741 5741 5740 5740 5740 5739 5739 5739 5739 5738 5738 5738 5738 5738 5738 5738 5738 5739 5739 5739 5739 5739 5740 5740 5740 5740 5741 5741
5728 5729 5729 5730 5730 5730 5731 5731 5731 5731 5732 5732 5732 5732 5732 5732 5732 5732 5732 5732 5732 5732 5732 5732 5732 5732 5733 5733 5733 5733 5733 5733 5734 5734 5734 5734 5735 5735 5735 5735 5735 5736 5736
5711 5711 5712 5713 5714 5715 5716 5717 5717 5718 5719 5720 5720 5721 5721 5722 5722 5723 5723 5724 5724 5724 5725 5725 5725 5725 5726 5726 5726 5727 5727 5727 5728 5728 5728 5728 5729 5729 5729 5729 5730 5730 5730